This is the latest recevied weather packets stored in our database for station/object VA2CPJ. If no packets are shown the sender has not sent any weather packets the latest 10 day(s).
| Time | Temp. | Humidity | Pressure | Rain* | Wind** | Luminosity | Snow |
|---|---|---|---|---|---|---|---|
| 1777606553 | 6.67° C | 99% | 1015.7 hPa | - | - | 0 W/m² | - |
| 1777605643 | 6.67° C | 99% | 1014.7 hPa | - | - | 0 W/m² | - |
| 1777605415 | 6.67° C | 99% | 1015.7 hPa | - | - | 0 W/m² | - |
| 1777602921 | 7.78° C | 99% | 1015.7 hPa | - | - | 0 W/m² | - |
| 1777602326 | 7.78° C | 99% | 1016 hPa | - | - | 0 W/m² | - |
| 1777602029 | 7.78° C | 99% | 1015 hPa | - | - | 0 W/m² | - |
| 1777601119 | 7.78° C | 99% | 1016 hPa | - | - | 0 W/m² | - |
| 1777597225 | 8.33° C | 99% | 1016.4 hPa | - | - | 0 W/m² | - |
| 1777596937 | 8.33° C | 99% | 1016 hPa | - | - | 0 W/m² | - |
| 1777595125 | 8.33° C | 99% | 1015.7 hPa | - | - | 0 W/m² | - |
| 1777592756 | 8.89° C | 98% | 1015.4 hPa | - | - | 275 W/m² | - |
| 1777591584 | 8.89° C | 98% | 1015.4 hPa | - | - | 777 W/m² | - |
| 1777591240 | 8.89° C | 98% | 1015.7 hPa | - | - | 1097 W/m² | - |
| 1777590945 | 8.89° C | 98% | 1015.4 hPa | - | - | 1204 W/m² | - |
| 1777590339 | 8.89° C | 98% | 1015.4 hPa | - | - | 1750 W/m² | - |
| 1777590024 | 8.89° C | 98% | 1015.4 hPa | - | - | - | - |
| 1777588825 | 8.89° C | 98% | 1014.3 hPa | - | - | - | - |
| 1777588580 | 8.89° C | 98% | 1015 hPa | - | - | - | - |
| 1777586760 | 9.44° C | 97% | 1015 hPa | - | - | - | - |
| 1777586147 | 9.44° C | 97% | 1015 hPa | - | - | - | - |
| 1777584625 | 9.44° C | 97% | 1014.3 hPa | - | - | - | - |
| 1777582227 | 9.44° C | 97% | 1015.4 hPa | - | - | - | - |
| 1777581624 | 9.44° C | 97% | 1015.4 hPa | - | - | - | - |
| 1777581347 | 9.44° C | 97% | 1015 hPa | - | - | - | - |
| 1777581028 | 9.44° C | 97% | 1015.4 hPa | - | - | - | - |
* Rain since midnight (hover to see other rain measurements)
** Current wind speed in m/s (hover to see current wind gust speed)